Regional Weather Roundup
Issued by NWS Upton, NY

Current Version | Previous Version | Graphics & Text | Print | Product List | Glossary Off
Versions: 1 2 3 4 5 6 7 8 9 10 11 12 13 14 15 16 17 18 19 20 21 22 23 24 25 26 27 28 29 30 31 32 33 34 35 36 37 38 39 40 41 42 43 44 45 46 47 48 49 50

000
ASUS41 KOKX 180605
RWROKX

Regional Weather Roundup
National Weather Service New York NY
100 AM EST SUN FEB 18 2018

Note: "FAIR" indicates few or no clouds below 12,000 feet with no
significant weather and/or obstructions to visibility.

NYZ071-072-176-178-NJZ106-104-180700-
New York City Metro Area

CITY           SKY/WX    TMP DP  RH WIND       PRES   REMARKS
Central Park   CLOUDY    33  32  96 N3        29.98F FOG
Bronx Bot Gard   N/A     32  32 100 S3        29.95F
Bronx Lehman C   N/A     34  32  93 E3          N/A
LaGuardia Arpt FOG       33  32  96 E5        29.96F VSB 1   WCI  29
Queens College   N/A     32  32 100 CALM        N/A
Kennedy Intl   LGT SNOW  32  32 100 CALM      29.98F FOG
Breezy Point     N/A     32 N/A N/A NE2         N/A
Brooklyn Coll    N/A     34  32  93 NE2         N/A
Staten Island    N/A     32  32 100 CALM        N/A
Newark/Liberty CLOUDY    33  33 100 NE3       29.97F FOG
Teterboro      LGT SNOW  33  32  96 CALM      29.96F FOG
$$

NYZ177-179-078>081-180700-
Long Island New York

CITY           SKY/WX    TMP DP  RH WIND       PRES   REMARKS
Jones Beach      N/A     32 N/A N/A CALM        N/A
Wantagh          N/A     32  32 100 CALM        N/A
Hempstead        N/A     34  32  93 CALM      30.00F
Matinecock Pt    N/A     32 N/A N/A E7          N/A  WCI  26
Farmingdale    MIX PCPN  33  33 100 CALM      29.96F VSB 3/4
MacArthur/ISP  LGT RAIN  33  33 100 CALM      29.95F FOG
Shirley        LGT RAIN  33  33 100 NW5       29.97F WCI  29
Mt Sinai Harb    N/A    N/A N/A N/A MISG        N/A
Westhampton    LGT RAIN  33  33 100 NW6       29.98F WCI  28
East Hampton   LGT RAIN  33  32  97 CALM      29.94F
Southold         N/A     32  32 100 W2          N/A
Montauk          N/A     39  39 100 CALM      29.95F
$$

NYZ052-065-067-180700-
Hudson Valley

CITY           SKY/WX    TMP DP  RH WIND       PRES   REMARKS
White Plains   LGT SNOW  32  31  96 E3        29.93F FOG
Larchmont Harb   N/A     32 N/A N/A NE8         N/A  WCI  25
Croton On Huds   N/A     32 N/A N/A MISG        N/A
Somers           N/A     32  32 100 NE1         N/A
Brewster         N/A     30  30 100 NE1         N/A
Newburgh       LGT SNOW  30  30 100 CALM      29.96F FOG
Montgomery     LGT SNOW  30  29  96 CALM      29.96F FOG
Otisville        N/A     30  30 100 CALM        N/A
Warwick          N/A     32  32 100 W3          N/A
Suffern          N/A     32  32 100 CALM        N/A
Poughkeepsie   LGT SNOW  30  28  92 NW3       29.97F FOG
Albany         LGT SNOW  30  27  88 S6        29.97F FOG     WCI  24
$$

NJZ001-105-106-008-010-013-015-019>022-104-180700-
New Jersey

CITY           SKY/WX    TMP DP  RH WIND       PRES   REMARKS
Newark/Liberty CLOUDY    33  33 100 NE3       29.97F FOG
Teterboro      LGT SNOW  33  32  96 CALM      29.96F FOG
Caldwell       CLOUDY    32  32 100 CALM      29.98F FOG
Somerville     CLOUDY    32  32 100 CALM      29.96F FOG
Linden         CLOUDY    33  32  96 CALM      29.98F FOG
Perth Amboy      N/A     32 N/A N/A NW3         N/A
Sussex         CLOUDY    31  30  96 CALM      29.97R FOG
Andover          N/A     30  30 100 CALM      29.97F
Trenton        CLOUDY    33  32  96 NW3       29.98S
Millville      CLOUDY    33  32  96 W5        30.00F FOG     WCI  29
Atlantic City  CLOUDY    34  34 100 NW5       29.97F FOG     WCI  30
Wrightstown    CLOUDY    32  32 100 CALM      29.95F
Toms River     CLOUDY    33  32  96 N3        29.97F FOG
Belmar         CLOUDY    32  31  96 NW3       29.97F
$$

PAZ047>061-062-071-180700-
Eastern Pennsylvania

CITY           SKY/WX    TMP DP  RH WIND       PRES   REMARKS
Philadelphia   CLOUDY    34  32  92 NW7       30.01F WCI  28
Allentown      CLOUDY    33  30  88 W3        29.99S FOG
Scranton       CLOUDY    30  29  96 SW3       29.94F FOG
$$

CTZ002-004>006-009-010-012-RIZ004-006-007-MAZ004-011-015-180700-
Southern New England

 In CT

CITY           SKY/WX    TMP DP  RH WIND       PRES   REMARKS
Bradley Intl   SNOW      29  29 100 N6        29.98F VSB 1/2 WCI  23
Hartford       LGT SNOW  30  30 100 N3        29.98F VSB 3/4
Danbury        LGT SNOW  31  30  96 CALM      29.95F FOG
Wtrbury/Oxford LGT SNOW  29  28  96 NE3       29.94F FOG
Norwalk Harbor   N/A    N/A N/A N/A NE8         N/A
Bridgeport     LGT SNOW  33  32  96 E7        29.97F FOG     WCI  27
Meriden        LGT SNOW  31  30  96 CALM      29.97F FOG
New Haven      LGT SNOW  33  32  96 N6        29.96F FOG     WCI  28
Chester        LGT SNOW  34  32  93 CALM      29.95F
Groton         LGT RAIN  34  32  92 N7        29.95F WCI  28
Willimantic    LGT SNOW  32  31  96 N5        29.98F FOG     WCI  27

 In RI

CITY           SKY/WX    TMP DP  RH WIND       PRES   REMARKS
Providence     LGT SNOW  33  33 100 N7        29.98F VSB 1   WCI  27
Block Island   LGT RAIN  38  37  97 E6        29.94F FOG     WCI  33
Westerly       LGT RAIN  34  33  96 N6        29.96F WCI  29

In MA

CITY           SKY/WX    TMP DP  RH WIND       PRES   REMARKS
Boston         LGT SNOW  33  32  96 NE7       30.01F VSB 1   WCI  27
Worcester      LGT SNOW  28  26  92 NE5       29.95F VSB 1   WCI  23
Westfield      LGT SNOW  29  28  96 N5        29.98F FOG     WCI  24
Provincetown   LGT SNOW  34  32  92 SE8       30.00F FOG     WCI  27
Nantucket      LGT RAIN  40  40 100 E15       29.95F WCI  32
$$

ANZ330-335-338-340-345-350-353-355-180700-
Coastal Marine Observations


STATION/POSITION TIME  SKY/WX   TEMP    WIND        PRES    VSBY  WAVE
                                AIR SEA DIR/SP/G                  HT/PER
                 (UTC)          (F)     (DEG/KT/KT) (MB)    (MI)  (FT/S)
NY Harb Entrance 0550            36 38  330/  4/  6 1014.7          2/ 5
20 S Fire Island 0550            38 42  340/ 10/ 12 1014.6          3/ 5
15 E Barnegat Li 0530               41                N/A           3/ 5
Hudson Canyon    0550            46 46  340/ 21/ 25 1011.0          5/ 6
Kings Point      0548               35     CALM     1015.8
Execution Rocks  NOT AVBL
Western LI Sound NOT AVBL
Central LI Sound 0545            34      60/ 10/ 12   N/A           2
Robbins Reef     0548                   340/  3/  3 1015.6
$$


>>>>>>>>>>>>>>>>>>>>>>>>>>>> KEY <<<<<<<<<<<<<<<<<<<<<<<<<<<
>                                                          <
>     SKY/WX - Sky Condition/Present Weather               <
>     TMP    - Temperature in Fahrenheit                   <
>     DP     - Dew Point in Fahrenheit                     <
>     RH     - Relative Humidity in Percent                <
>     WIND   - Direction (from) and Speed in MPH           <
>     PRES   - Mean Sea Level Pressure (inches of Hg)      <
>     WCI    - Wind Chill Index                            <
>     VSB    - Visibility in Miles                         <
>     HX     - Heat Index                                  <
>     TC     - Temperature in Celsius                      <
>     VRB    - Varibale Wind Direction                     <
>                                                          <
>>>>>>>>>>>>>>>>>>>>>>>>>>>> KEY <<<<<<<<<<<<<<<<<<<<<<<<<<<



USA.gov is the U.S. government's official web portal to all federal, state and local government web resources and services.